owner,sensor,date,latitude,longitude,vertical_datum,sea_water_temperature,qcFlag
BP,ioos:station:wmo:42907:2,2023-06-01T15:12:00Z,27.5099,-89.9503,15.0,26.6,11111222
BP,ioos:station:wmo:42907:2,2023-06-01T15:22:00Z,27.5100,-89.9503,15.0,26.7,11111222
BP,ioos:station:wmo:42907:2,2023-06-01T15:32:00Z,27.5100,-89.9503,15.0,26.6,11111222
BP,ioos:station:wmo:42907:2,2023-06-01T15:42:00Z,27.5100,-89.9503,15.0,26.6,11111222
BP,ioos:station:wmo:42907:2,2023-06-01T15:52:00Z,27.5100,-89.9503,15.0,26.5,11111222
BP,ioos:station:wmo:42907:2,2023-06-01T16:02:00Z,27.5100,-89.9503,15.0,26.4,11111222
BP,ioos:station:wmo:42907:2,2023-06-01T16:12:00Z,27.5100,-89.9503,15.0,26.6,11111222
BP,ioos:station:wmo:42907:2,2023-06-01T16:30:00Z,27.5100,-89.9503,15.0,26.4,11111222
BP,ioos:station:wmo:42907:2,2023-06-01T16:40:00Z,27.5100,-89.9503,15.0,26.6,11111222
BP,ioos:station:wmo:42907:2,2023-06-01T16:50:00Z,27.5100,-89.9503,15.0,26.3,11111222
BP,ioos:station:wmo:42907:2,2023-06-01T17:00:00Z,27.5100,-89.9503,15.0,26.5,11111222
BP,ioos:station:wmo:42907:2,2023-06-01T17:10:00Z,27.5100,-89.9503,15.0,26.3,11111222
BP,ioos:station:wmo:42907:2,2023-06-01T17:20:00Z,27.5099,-89.9503,15.0,26.4,11111222
BP,ioos:station:wmo:42907:2,2023-06-01T17:30:00Z,27.5099,-89.9503,15.0,26.7,11111222
BP,ioos:station:wmo:42907:2,2023-06-01T17:40:00Z,27.5099,-89.9503,15.0,26.6,11111222
BP,ioos:station:wmo:42907:2,2023-06-01T17:50:00Z,27.5099,-89.9503,15.0,26.6,11111222
BP,ioos:station:wmo:42907:2,2023-06-01T18:00:00Z,27.5099,-89.9503,15.0,26.6,11111222
BP,ioos:station:wmo:42907:2,2023-06-01T18:10:00Z,27.5100,-89.9503,15.0,26.5,11111222
BP,ioos:station:wmo:42907:2,2023-06-01T18:20:00Z,27.5099,-89.9503,15.0,26.6,11111222
BP,ioos:station:wmo:42907:2,2023-06-01T18:30:00Z,27.5098,-89.9496,15.0,26.8,11111222
BP,ioos:station:wmo:42907:2,2023-06-01T18:40:00Z,27.5095,-89.9480,15.0,26.7,11111222
BP,ioos:station:wmo:42907:2,2023-06-01T18:50:00Z,27.5092,-89.9465,15.0,26.6,11111222
BP,ioos:station:wmo:42907:2,2023-06-01T19:00:00Z,27.5090,-89.9453,15.0,26.9,11111222
BP,ioos:station:wmo:42907:2,2023-06-01T19:10:00Z,27.5090,-89.9453,15.0,26.6,11111222
BP,ioos:station:wmo:42907:2,2023-06-01T19:20:00Z,27.5090,-89.9453,15.0,26.6,11111222
BP,ioos:station:wmo:42907:2,2023-06-01T19:30:00Z,27.5090,-89.9453,15.0,26.8,11111222
BP,ioos:station:wmo:42907:2,2023-06-01T19:40:00Z,27.5090,-89.9453,15.0,26.5,11111222
BP,ioos:station:wmo:42907:2,2023-06-01T19:50:00Z,27.5090,-89.9453,15.0,26.7,11111222
BP,ioos:station:wmo:42907:2,2023-06-01T20:00:00Z,27.5090,-89.9453,15.0,26.4,11111222
BP,ioos:station:wmo:42907:2,2023-06-01T20:10:00Z,27.5090,-89.9453,15.0,26.6,11111222
BP,ioos:station:wmo:42907:2,2023-06-01T20:20:00Z,27.5090,-89.9453,15.0,26.6,11111222
BP,ioos:station:wmo:42907:2,2023-06-01T20:30:00Z,27.5090,-89.9453,15.0,26.6,11111222
BP,ioos:station:wmo:42907:2,2023-06-01T20:40:00Z,27.5090,-89.9453,15.0,26.4,11111222
BP,ioos:station:wmo:42907:2,2023-06-01T20:50:00Z,27.5090,-89.9453,15.0,26.4,11111222
BP,ioos:station:wmo:42907:2,2023-06-01T21:00:00Z,27.5090,-89.9453,15.0,25.6,11111222
BP,ioos:station:wmo:42907:2,2023-06-01T21:10:00Z,27.5090,-89.9453,15.0,26.4,11111222
BP,ioos:station:wmo:42907:2,2023-06-01T21:20:00Z,27.5090,-89.9453,15.0,26.6,11111222
BP,ioos:station:wmo:42907:2,2023-06-01T21:30:00Z,27.5090,-89.9453,15.0,26.4,11111222
BP,ioos:station:wmo:42907:2,2023-06-01T21:40:00Z,27.5090,-89.9453,15.0,26.4,11111222
BP,ioos:station:wmo:42907:2,2023-06-01T21:50:00Z,27.5090,-89.9453,15.0,26.5,11111222
BP,ioos:station:wmo:42907:2,2023-06-01T22:00:00Z,27.5090,-89.9453,15.0,26.4,11111222
BP,ioos:station:wmo:42907:2,2023-06-01T22:10:00Z,27.5090,-89.9453,15.0,26.2,11111222
BP,ioos:station:wmo:42907:2,2023-06-01T22:20:00Z,27.5090,-89.9453,15.0,26.4,11111222
BP,ioos:station:wmo:42907:2,2023-06-01T22:30:00Z,27.5090,-89.9453,15.0,26.4,11111222
BP,ioos:station:wmo:42907:2,2023-06-01T22:40:00Z,27.5090,-89.9453,15.0,26.2,11111222
BP,ioos:station:wmo:42907:2,2023-06-01T22:50:00Z,27.5090,-89.9453,15.0,26.5,11111222
BP,ioos:station:wmo:42907:2,2023-06-01T23:00:00Z,27.5090,-89.9453,15.0,26.6,11111222
BP,ioos:station:wmo:42907:2,2023-06-01T23:10:00Z,27.5090,-89.9453,15.0,26.8,11111222
BP,ioos:station:wmo:42907:2,2023-06-01T23:20:00Z,27.5090,-89.9453,15.0,26.6,11111222
BP,ioos:station:wmo:42907:2,2023-06-01T23:30:00Z,27.5090,-89.9453,15.0,26.7,11111222
BP,ioos:station:wmo:42907:2,2023-06-01T23:40:00Z,27.5090,-89.9453,15.0,26.3,11111222
BP,ioos:station:wmo:42907:2,2023-06-01T23:50:00Z,27.5090,-89.9453,15.0,26.4,11111222
BP,ioos:station:wmo:42907:2,2023-06-02T00:00:00Z,27.5090,-89.9453,15.0,26.5,11111222
BP,ioos:station:wmo:42907:2,2023-06-02T00:10:00Z,27.5090,-89.9453,15.0,26.4,11111222
BP,ioos:station:wmo:42907:2,2023-06-02T00:20:00Z,27.5090,-89.9453,15.0,26.4,11111222
BP,ioos:station:wmo:42907:2,2023-06-02T00:30:00Z,27.5090,-89.9453,15.0,26.1,11111222
BP,ioos:station:wmo:42907:2,2023-06-02T00:40:00Z,27.5090,-89.9453,15.0,26.4,11111222
BP,ioos:station:wmo:42907:2,2023-06-02T00:50:00Z,27.5090,-89.9453,15.0,26.4,11111222
BP,ioos:station:wmo:42907:2,2023-06-02T01:00:00Z,27.5090,-89.9453,15.0,26.1,11111222
BP,ioos:station:wmo:42907:2,2023-06-02T01:10:00Z,27.5090,-89.9453,15.0,26.4,11111222
BP,ioos:station:wmo:42907:2,2023-06-02T01:20:00Z,27.5090,-89.9453,15.0,26.4,11111222
BP,ioos:station:wmo:42907:2,2023-06-02T01:30:00Z,27.5090,-89.9453,15.0,26.4,11111222
BP,ioos:station:wmo:42907:2,2023-06-02T01:40:00Z,27.5090,-89.9453,15.0,26.4,11111222
BP,ioos:station:wmo:42907:2,2023-06-02T01:50:00Z,27.5090,-89.9453,15.0,26.5,11111222
BP,ioos:station:wmo:42907:2,2023-06-02T02:00:00Z,27.5090,-89.9453,15.0,26.5,11111222
BP,ioos:station:wmo:42907:2,2023-06-02T02:10:00Z,27.5090,-89.9453,15.0,26.6,11111222
BP,ioos:station:wmo:42907:2,2023-06-02T02:20:00Z,27.5090,-89.9453,15.0,26.5,11111222
BP,ioos:station:wmo:42907:2,2023-06-02T02:30:00Z,27.5090,-89.9453,15.0,26.2,11111222
BP,ioos:station:wmo:42907:2,2023-06-02T02:40:00Z,27.5090,-89.9453,15.0,26.5,11111222
BP,ioos:station:wmo:42907:2,2023-06-02T02:50:00Z,27.5090,-89.9453,15.0,26.5,11111222
BP,ioos:station:wmo:42907:2,2023-06-02T03:00:00Z,27.5090,-89.9453,15.0,26.4,11111222
BP,ioos:station:wmo:42907:2,2023-06-02T03:10:00Z,27.5090,-89.9453,15.0,26.4,11111222
BP,ioos:station:wmo:42907:2,2023-06-02T03:20:00Z,27.5090,-89.9453,15.0,26.6,11111222
BP,ioos:station:wmo:42907:2,2023-06-02T03:30:00Z,27.5090,-89.9453,15.0,26.3,11111222
BP,ioos:station:wmo:42907:2,2023-06-02T03:40:00Z,27.5090,-89.9453,15.0,26.0,11111222
BP,ioos:station:wmo:42907:2,2023-06-02T03:50:00Z,27.5090,-89.9453,15.0,26.0,11111222
BP,ioos:station:wmo:42907:2,2023-06-02T04:00:00Z,27.5090,-89.9453,15.0,26.3,11111222
BP,ioos:station:wmo:42907:2,2023-06-02T04:10:00Z,27.5090,-89.9453,15.0,26.6,11111222
BP,ioos:station:wmo:42907:2,2023-06-02T04:20:00Z,27.5090,-89.9453,15.0,26.4,11111222
BP,ioos:station:wmo:42907:2,2023-06-02T04:30:00Z,27.5090,-89.9453,15.0,25.9,11111222
BP,ioos:station:wmo:42907:2,2023-06-02T04:40:00Z,27.5090,-89.9453,15.0,26.3,11111222
BP,ioos:station:wmo:42907:2,2023-06-02T04:50:00Z,27.5090,-89.9453,15.0,25.4,11111222
BP,ioos:station:wmo:42907:2,2023-06-02T05:00:00Z,27.5090,-89.9453,15.0,25.6,11111222
BP,ioos:station:wmo:42907:2,2023-06-02T05:10:00Z,27.5090,-89.9453,15.0,25.9,11111222
BP,ioos:station:wmo:42907:2,2023-06-02T05:20:00Z,27.5090,-89.9453,15.0,26.3,11111222
BP,ioos:station:wmo:42907:2,2023-06-02T05:30:00Z,27.5090,-89.9453,15.0,26.0,11111222
BP,ioos:station:wmo:42907:2,2023-06-02T05:40:00Z,27.5090,-89.9453,15.0,25.8,11111222
BP,ioos:station:wmo:42907:2,2023-06-02T05:50:00Z,27.5090,-89.9453,15.0,26.3,11111222
BP,ioos:station:wmo:42907:2,2023-06-02T06:00:00Z,27.5090,-89.9453,15.0,26.5,11111222
BP,ioos:station:wmo:42907:2,2023-06-02T06:10:00Z,27.5090,-89.9453,15.0,26.2,11111222
BP,ioos:station:wmo:42907:2,2023-06-02T06:20:00Z,27.5090,-89.9453,15.0,26.2,11111222
BP,ioos:station:wmo:42907:2,2023-06-02T06:30:00Z,27.5090,-89.9453,15.0,26.2,11111222
BP,ioos:station:wmo:42907:2,2023-06-02T06:40:00Z,27.5090,-89.9453,15.0,26.2,11111222
BP,ioos:station:wmo:42907:2,2023-06-02T06:50:00Z,27.5090,-89.9453,15.0,26.2,11111222
BP,ioos:station:wmo:42907:2,2023-06-02T07:00:00Z,27.5090,-89.9453,15.0,26.1,11111222
BP,ioos:station:wmo:42907:2,2023-06-02T07:10:00Z,27.5090,-89.9453,15.0,26.3,11111222
BP,ioos:station:wmo:42907:2,2023-06-02T07:20:00Z,27.5090,-89.9453,15.0,26.4,11111222
BP,ioos:station:wmo:42907:2,2023-06-02T07:30:00Z,27.5090,-89.9453,15.0,26.1,11111222
BP,ioos:station:wmo:42907:2,2023-06-02T07:40:00Z,27.5090,-89.9453,15.0,26.1,11111222
BP,ioos:station:wmo:42907:2,2023-06-02T07:50:00Z,27.5090,-89.9453,15.0,26.3,11111222
BP,ioos:station:wmo:42907:2,2023-06-02T08:00:00Z,27.5090,-89.9453,15.0,26.3,11111222
BP,ioos:station:wmo:42907:2,2023-06-02T08:10:00Z,27.5090,-89.9453,15.0,26.4,11111222
BP,ioos:station:wmo:42907:2,2023-06-02T08:20:00Z,27.5090,-89.9453,15.0,26.1,11111222
BP,ioos:station:wmo:42907:2,2023-06-02T08:30:00Z,27.5090,-89.9453,15.0,26.1,11111222
BP,ioos:station:wmo:42907:2,2023-06-02T08:40:00Z,27.5090,-89.9453,15.0,26.0,11111222
BP,ioos:station:wmo:42907:2,2023-06-02T08:50:00Z,27.5090,-89.9453,15.0,25.9,11111222
BP,ioos:station:wmo:42907:2,2023-06-02T09:00:00Z,27.5090,-89.9453,15.0,26.0,11111222
BP,ioos:station:wmo:42907:2,2023-06-02T09:10:00Z,27.5090,-89.9453,15.0,25.9,11111222
BP,ioos:station:wmo:42907:2,2023-06-02T09:20:00Z,27.5090,-89.9453,15.0,25.9,11111222
BP,ioos:station:wmo:42907:2,2023-06-02T09:30:00Z,27.5090,-89.9453,15.0,26.1,11111222
BP,ioos:station:wmo:42907:2,2023-06-02T09:40:00Z,27.5090,-89.9453,15.0,26.1,11111222
BP,ioos:station:wmo:42907:2,2023-06-02T09:50:00Z,27.5090,-89.9453,15.0,25.6,11111222
BP,ioos:station:wmo:42907:2,2023-06-02T10:00:00Z,27.5090,-89.9453,15.0,25.7,11111222
BP,ioos:station:wmo:42907:2,2023-06-02T10:10:00Z,27.5090,-89.9453,15.0,25.5,11111222
BP,ioos:station:wmo:42907:2,2023-06-02T10:20:00Z,27.5090,-89.9453,15.0,26.1,11111222
BP,ioos:station:wmo:42907:2,2023-06-02T10:30:00Z,27.5090,-89.9453,15.0,26.0,11111222
BP,ioos:station:wmo:42907:2,2023-06-02T10:40:00Z,27.5090,-89.9453,15.0,25.9,11111222
BP,ioos:station:wmo:42907:2,2023-06-02T10:50:00Z,27.5090,-89.9453,15.0,26.1,11111222
BP,ioos:station:wmo:42907:2,2023-06-02T11:00:00Z,27.5090,-89.9453,15.0,26.0,11111222
BP,ioos:station:wmo:42907:2,2023-06-02T11:10:00Z,27.5090,-89.9453,15.0,25.8,11111222
BP,ioos:station:wmo:42907:2,2023-06-02T11:20:00Z,27.5090,-89.9453,15.0,26.1,11111222
BP,ioos:station:wmo:42907:2,2023-06-02T11:30:00Z,27.5090,-89.9453,15.0,26.1,11111222
BP,ioos:station:wmo:42907:2,2023-06-02T11:40:00Z,27.5090,-89.9453,15.0,26.2,11111222
BP,ioos:station:wmo:42907:2,2023-06-02T11:50:00Z,27.5090,-89.9453,15.0,26.2,11111222
BP,ioos:station:wmo:42907:2,2023-06-02T12:00:00Z,27.5090,-89.9453,15.0,25.9,11111222
BP,ioos:station:wmo:42907:2,2023-06-02T12:10:00Z,27.5090,-89.9453,15.0,26.1,11111222
BP,ioos:station:wmo:42907:2,2023-06-02T12:20:00Z,27.5090,-89.9453,15.0,25.9,11111222
BP,ioos:station:wmo:42907:2,2023-06-02T12:30:00Z,27.5090,-89.9453,15.0,26.1,11111222
BP,ioos:station:wmo:42907:2,2023-06-02T12:40:00Z,27.5090,-89.9453,15.0,26.1,11111222
BP,ioos:station:wmo:42907:2,2023-06-02T12:50:00Z,27.5090,-89.9453,15.0,25.8,11111222
BP,ioos:station:wmo:42907:2,2023-06-02T13:00:00Z,27.5090,-89.9453,15.0,25.8,11111222
BP,ioos:station:wmo:42907:2,2023-06-02T13:10:00Z,27.5090,-89.9453,15.0,25.6,11111222
BP,ioos:station:wmo:42907:2,2023-06-02T13:20:00Z,27.5090,-89.9453,15.0,25.9,11111222
BP,ioos:station:wmo:42907:2,2023-06-02T13:30:00Z,27.5090,-89.9453,15.0,25.5,11111222
BP,ioos:station:wmo:42907:2,2023-06-02T13:40:00Z,27.5090,-89.9453,15.0,25.7,11111222
BP,ioos:station:wmo:42907:2,2023-06-02T13:50:00Z,27.5090,-89.9453,15.0,25.8,11111222
BP,ioos:station:wmo:42907:2,2023-06-02T14:00:00Z,27.5090,-89.9453,15.0,25.7,11111222
BP,ioos:station:wmo:42907:2,2023-06-02T14:10:00Z,27.5090,-89.9453,15.0,25.8,11111222
BP,ioos:station:wmo:42907:2,2023-06-02T14:20:00Z,27.5090,-89.9453,15.0,25.7,11111222
BP,ioos:station:wmo:42907:2,2023-06-02T14:30:00Z,27.5090,-89.9453,15.0,25.7,11111222
BP,ioos:station:wmo:42907:2,2023-06-02T14:40:00Z,27.5090,-89.9453,15.0,26.2,11111222
BP,ioos:station:wmo:42907:2,2023-06-02T14:50:00Z,27.5090,-89.9453,15.0,26.1,11111222
BP,ioos:station:wmo:42907:2,2023-06-02T15:00:00Z,27.5090,-89.9453,15.0,26.1,11111222
BP,ioos:station:wmo:42907:2,2023-06-02T15:10:00Z,27.5090,-89.9453,15.0,25.9,11111222
BP,ioos:station:wmo:42907:2,2023-06-02T15:20:00Z,27.5090,-89.9453,15.0,26.2,11111222
BP,ioos:station:wmo:42907:2,2023-06-02T15:30:00Z,27.5090,-89.9453,15.0,25.9,11111222
BP,ioos:station:wmo:42907:2,2023-06-02T15:40:00Z,27.5090,-89.9453,15.0,25.9,11111222
BP,ioos:station:wmo:42907:2,2023-06-02T15:50:00Z,27.5090,-89.9453,15.0,26.1,11111222
BP,ioos:station:wmo:42907:2,2023-06-02T16:00:00Z,27.5090,-89.9453,15.0,26.1,11111222
BP,ioos:station:wmo:42907:2,2023-06-02T16:10:00Z,27.5090,-89.9453,15.0,26.2,11111222
BP,ioos:station:wmo:42907:2,2023-06-02T16:20:00Z,27.5090,-89.9453,15.0,26.0,11111222
BP,ioos:station:wmo:42907:2,2023-06-02T16:30:00Z,27.5090,-89.9453,15.0,26.1,11111222
BP,ioos:station:wmo:42907:2,2023-06-02T16:40:00Z,27.5090,-89.9453,15.0,26.1,11111222
BP,ioos:station:wmo:42907:2,2023-06-02T16:50:00Z,27.5090,-89.9453,15.0,25.9,11111222
BP,ioos:station:wmo:42907:2,2023-06-02T17:00:00Z,27.5090,-89.9453,15.0,25.7,11111222
BP,ioos:station:wmo:42907:2,2023-06-02T17:10:00Z,27.5090,-89.9453,15.0,25.7,11111222
BP,ioos:station:wmo:42907:2,2023-06-02T17:20:00Z,27.5090,-89.9453,15.0,26.0,11111222
BP,ioos:station:wmo:42907:2,2023-06-02T17:30:00Z,27.5090,-89.9453,15.0,26.4,11111222
BP,ioos:station:wmo:42907:2,2023-06-02T17:40:00Z,27.5090,-89.9453,15.0,26.4,11111222
BP,ioos:station:wmo:42907:2,2023-06-02T17:50:00Z,27.5090,-89.9453,15.0,26.6,11111222
BP,ioos:station:wmo:42907:2,2023-06-02T18:00:00Z,27.5090,-89.9453,15.0,26.4,11111222
BP,ioos:station:wmo:42907:2,2023-06-02T18:10:00Z,27.5090,-89.9453,15.0,26.5,11111222
BP,ioos:station:wmo:42907:2,2023-06-02T18:20:00Z,27.5090,-89.9453,15.0,26.4,11111222
BP,ioos:station:wmo:42907:2,2023-06-02T18:30:00Z,27.5090,-89.9453,15.0,26.4,11111222
BP,ioos:station:wmo:42907:2,2023-06-02T18:40:00Z,27.5090,-89.9453,15.0,26.8,11111222
BP,ioos:station:wmo:42907:2,2023-06-02T18:50:00Z,27.5090,-89.9453,15.0,26.5,11111222
BP,ioos:station:wmo:42907:2,2023-06-02T19:00:00Z,27.5090,-89.9454,15.0,26.5,11111222
BP,ioos:station:wmo:42907:2,2023-06-02T19:10:00Z,27.5090,-89.9453,15.0,26.3,11111222
BP,ioos:station:wmo:42907:2,2023-06-02T19:20:00Z,27.5090,-89.9453,15.0,26.2,11111222
BP,ioos:station:wmo:42907:2,2023-06-02T19:30:00Z,27.5090,-89.9453,15.0,25.9,11111222
BP,ioos:station:wmo:42907:2,2023-06-02T19:40:00Z,27.5090,-89.9453,15.0,25.7,11111222
BP,ioos:station:wmo:42907:2,2023-06-02T19:50:00Z,27.5090,-89.9453,15.0,25.7,11111222
BP,ioos:station:wmo:42907:2,2023-06-02T20:00:00Z,27.5090,-89.9453,15.0,25.8,11111222
BP,ioos:station:wmo:42907:2,2023-06-02T20:10:00Z,27.5090,-89.9453,15.0,25.8,11111222
BP,ioos:station:wmo:42907:2,2023-06-02T20:20:00Z,27.5090,-89.9453,15.0,25.8,11111222
BP,ioos:station:wmo:42907:2,2023-06-02T20:30:00Z,27.5090,-89.9453,15.0,25.8,11111222
BP,ioos:station:wmo:42907:2,2023-06-02T20:40:00Z,27.5090,-89.9453,15.0,25.6,11111222
BP,ioos:station:wmo:42907:2,2023-06-02T20:50:00Z,27.5090,-89.9453,15.0,25.4,11111222
BP,ioos:station:wmo:42907:2,2023-06-02T21:00:00Z,27.5090,-89.9453,15.0,25.6,11111222
BP,ioos:station:wmo:42907:2,2023-06-02T21:10:00Z,27.5090,-89.9453,15.0,25.8,11111222
BP,ioos:station:wmo:42907:2,2023-06-02T21:20:00Z,27.5090,-89.9453,15.0,25.4,11111222
BP,ioos:station:wmo:42907:2,2023-06-02T21:30:00Z,27.5090,-89.9453,15.0,25.7,11111222
BP,ioos:station:wmo:42907:2,2023-06-02T21:40:00Z,27.5090,-89.9453,15.0,25.8,11111222
BP,ioos:station:wmo:42907:2,2023-06-02T21:50:00Z,27.5090,-89.9454,15.0,25.6,11111222
BP,ioos:station:wmo:42907:2,2023-06-02T22:00:00Z,27.5090,-89.9453,15.0,26.2,11111222
BP,ioos:station:wmo:42907:2,2023-06-02T22:10:00Z,27.5090,-89.9453,15.0,26.1,11111222
BP,ioos:station:wmo:42907:2,2023-06-02T22:20:00Z,27.5090,-89.9453,15.0,25.9,11111222
BP,ioos:station:wmo:42907:2,2023-06-02T22:30:00Z,27.5090,-89.9453,15.0,25.7,11111222
BP,ioos:station:wmo:42907:2,2023-06-02T22:40:00Z,27.5090,-89.9453,15.0,25.8,11111222
BP,ioos:station:wmo:42907:2,2023-06-02T22:50:00Z,27.5090,-89.9453,15.0,25.6,11111222
BP,ioos:station:wmo:42907:2,2023-06-02T23:00:00Z,27.5090,-89.9453,15.0,25.5,11111222
BP,ioos:station:wmo:42907:2,2023-06-02T23:10:00Z,27.5090,-89.9453,15.0,25.8,11111222
BP,ioos:station:wmo:42907:2,2023-06-02T23:20:00Z,27.5090,-89.9453,15.0,25.2,11111222
BP,ioos:station:wmo:42907:2,2023-06-02T23:30:00Z,27.5090,-89.9453,15.0,25.7,11111222
BP,ioos:station:wmo:42907:2,2023-06-02T23:40:00Z,27.5090,-89.9453,15.0,25.8,11111222
BP,ioos:station:wmo:42907:2,2023-06-02T23:50:00Z,27.5090,-89.9453,15.0,25.9,11111222
BP,ioos:station:wmo:42907:2,2023-06-03T00:00:00Z,27.5090,-89.9454,15.0,25.9,11111222
BP,ioos:station:wmo:42907:2,2023-06-03T00:10:00Z,27.5090,-89.9453,15.0,26.2,11111222
BP,ioos:station:wmo:42907:2,2023-06-03T00:20:00Z,27.5090,-89.9453,15.0,26.5,11111222
BP,ioos:station:wmo:42907:2,2023-06-03T00:30:00Z,27.5090,-89.9453,15.0,26.4,11111222
BP,ioos:station:wmo:42907:2,2023-06-03T00:40:00Z,27.5090,-89.9453,15.0,26.2,11111222
BP,ioos:station:wmo:42907:2,2023-06-03T00:50:00Z,27.5090,-89.9453,15.0,26.1,11111222
BP,ioos:station:wmo:42907:2,2023-06-03T01:00:00Z,27.5090,-89.9453,15.0,26.4,11111222
BP,ioos:station:wmo:42907:2,2023-06-03T01:10:00Z,27.5090,-89.9453,15.0,26.6,11111222
BP,ioos:station:wmo:42907:2,2023-06-03T01:20:00Z,27.5090,-89.9453,15.0,26.5,11111222
BP,ioos:station:wmo:42907:2,2023-06-03T01:30:00Z,27.5090,-89.9453,15.0,26.5,11111222
BP,ioos:station:wmo:42907:2,2023-06-03T01:40:00Z,27.5090,-89.9453,15.0,26.6,11111222
BP,ioos:station:wmo:42907:2,2023-06-03T01:50:00Z,27.5090,-89.9453,15.0,26.5,11111222
BP,ioos:station:wmo:42907:2,2023-06-03T02:00:00Z,27.5090,-89.9453,15.0,26.6,11111222
BP,ioos:station:wmo:42907:2,2023-06-03T02:10:00Z,27.5090,-89.9453,15.0,26.6,11111222
BP,ioos:station:wmo:42907:2,2023-06-03T02:20:00Z,27.5090,-89.9453,15.0,26.6,11111222
BP,ioos:station:wmo:42907:2,2023-06-03T02:30:00Z,27.5090,-89.9453,15.0,26.3,11111222
BP,ioos:station:wmo:42907:2,2023-06-03T02:40:00Z,27.5090,-89.9453,15.0,26.1,11111222
BP,ioos:station:wmo:42907:2,2023-06-03T02:50:00Z,27.5090,-89.9453,15.0,26.2,11111222
BP,ioos:station:wmo:42907:2,2023-06-03T03:00:00Z,27.5090,-89.9453,15.0,26.3,11111222
BP,ioos:station:wmo:42907:2,2023-06-03T03:10:00Z,27.5090,-89.9453,15.0,26.2,11111222
BP,ioos:station:wmo:42907:2,2023-06-03T03:20:00Z,27.5090,-89.9453,15.0,26.3,11111222
BP,ioos:station:wmo:42907:2,2023-06-03T03:30:00Z,27.5090,-89.9453,15.0,26.2,11111222
BP,ioos:station:wmo:42907:2,2023-06-03T03:40:00Z,27.5090,-89.9453,15.0,26.3,11111222
BP,ioos:station:wmo:42907:2,2023-06-03T03:50:00Z,27.5090,-89.9453,15.0,26.5,11111222
BP,ioos:station:wmo:42907:2,2023-06-03T04:00:00Z,27.5090,-89.9453,15.0,26.4,11111222
BP,ioos:station:wmo:42907:2,2023-06-03T04:10:00Z,27.5090,-89.9453,15.0,26.3,11111222
BP,ioos:station:wmo:42907:2,2023-06-03T04:20:00Z,27.5090,-89.9453,15.0,26.3,11111222
BP,ioos:station:wmo:42907:2,2023-06-03T04:30:00Z,27.5090,-89.9453,15.0,26.2,11111222
BP,ioos:station:wmo:42907:2,2023-06-03T04:40:00Z,27.5090,-89.9453,15.0,26.4,11111222
BP,ioos:station:wmo:42907:2,2023-06-03T04:50:00Z,27.5090,-89.9453,15.0,26.6,11111222
BP,ioos:station:wmo:42907:2,2023-06-03T05:00:00Z,27.5090,-89.9453,15.0,26.6,11111222
BP,ioos:station:wmo:42907:2,2023-06-03T05:10:00Z,27.5090,-89.9453,15.0,26.6,11111222
BP,ioos:station:wmo:42907:2,2023-06-03T05:20:00Z,27.5090,-89.9453,15.0,26.6,11111222
BP,ioos:station:wmo:42907:2,2023-06-03T05:30:00Z,27.5090,-89.9453,15.0,26.6,11111222
BP,ioos:station:wmo:42907:2,2023-06-03T05:40:00Z,27.5090,-89.9453,15.0,26.6,11111222
BP,ioos:station:wmo:42907:2,2023-06-03T05:50:00Z,27.5090,-89.9453,15.0,26.6,11111222
BP,ioos:station:wmo:42907:2,2023-06-03T06:00:00Z,27.5090,-89.9453,15.0,26.5,11111222
BP,ioos:station:wmo:42907:2,2023-06-03T06:10:00Z,27.5090,-89.9453,15.0,26.5,11111222
BP,ioos:station:wmo:42907:2,2023-06-03T06:20:00Z,27.5090,-89.9453,15.0,26.6,11111222
BP,ioos:station:wmo:42907:2,2023-06-03T06:30:00Z,27.5090,-89.9453,15.0,26.5,11111222
BP,ioos:station:wmo:42907:2,2023-06-03T06:40:00Z,27.5090,-89.9453,15.0,26.7,11111222
BP,ioos:station:wmo:42907:2,2023-06-03T06:50:00Z,27.5090,-89.9453,15.0,26.6,11111222
BP,ioos:station:wmo:42907:2,2023-06-03T07:00:00Z,27.5090,-89.9453,15.0,26.5,11111222
BP,ioos:station:wmo:42907:2,2023-06-03T07:10:00Z,27.5090,-89.9453,15.0,26.8,11111222
BP,ioos:station:wmo:42907:2,2023-06-03T07:20:00Z,27.5090,-89.9453,15.0,27.4,11111222
BP,ioos:station:wmo:42907:2,2023-06-03T07:30:00Z,27.5090,-89.9453,15.0,26.6,11111222
BP,ioos:station:wmo:42907:2,2023-06-03T07:40:00Z,27.5090,-89.9453,15.0,26.6,11111222
BP,ioos:station:wmo:42907:2,2023-06-03T07:50:00Z,27.5090,-89.9453,15.0,26.3,11111222
BP,ioos:station:wmo:42907:2,2023-06-03T08:00:00Z,27.5090,-89.9453,15.0,26.3,11111222
BP,ioos:station:wmo:42907:2,2023-06-03T08:10:00Z,27.5090,-89.9453,15.0,26.5,11111222
BP,ioos:station:wmo:42907:2,2023-06-03T08:20:00Z,27.5090,-89.9453,15.0,26.4,11111222
BP,ioos:station:wmo:42907:2,2023-06-03T08:30:00Z,27.5090,-89.9453,15.0,26.4,11111222
BP,ioos:station:wmo:42907:2,2023-06-03T08:40:00Z,27.5090,-89.9453,15.0,26.4,11111222
BP,ioos:station:wmo:42907:2,2023-06-03T08:50:00Z,27.5090,-89.9453,15.0,26.0,11111222
BP,ioos:station:wmo:42907:2,2023-06-03T09:00:00Z,27.5090,-89.9453,15.0,26.4,11111222
BP,ioos:station:wmo:42907:2,2023-06-03T09:10:00Z,27.5090,-89.9453,15.0,26.2,11111222
BP,ioos:station:wmo:42907:2,2023-06-03T09:20:00Z,27.5090,-89.9453,15.0,26.2,11111222
BP,ioos:station:wmo:42907:2,2023-06-03T09:30:00Z,27.5090,-89.9453,15.0,26.3,11111222
BP,ioos:station:wmo:42907:2,2023-06-03T09:40:00Z,27.5090,-89.9453,15.0,26.2,11111222
BP,ioos:station:wmo:42907:2,2023-06-03T09:50:00Z,27.5090,-89.9453,15.0,26.1,11111222
BP,ioos:station:wmo:42907:2,2023-06-03T10:00:00Z,27.5090,-89.9453,15.0,26.1,11111222
BP,ioos:station:wmo:42907:2,2023-06-03T10:10:00Z,27.5090,-89.9453,15.0,25.9,11111222
BP,ioos:station:wmo:42907:2,2023-06-03T10:20:00Z,27.5090,-89.9453,15.0,25.5,11111222
BP,ioos:station:wmo:42907:2,2023-06-03T10:30:00Z,27.5090,-89.9453,15.0,25.8,11111222
BP,ioos:station:wmo:42907:2,2023-06-03T10:40:00Z,27.5090,-89.9453,15.0,25.6,11111222
BP,ioos:station:wmo:42907:2,2023-06-03T10:50:00Z,27.5090,-89.9453,15.0,25.5,11111222
BP,ioos:station:wmo:42907:2,2023-06-03T11:00:00Z,27.5090,-89.9453,15.0,25.2,11111222
BP,ioos:station:wmo:42907:2,2023-06-03T11:10:00Z,27.5090,-89.9453,15.0,25.2,11111222
BP,ioos:station:wmo:42907:2,2023-06-03T11:20:00Z,27.5090,-89.9453,15.0,25.1,11111222
BP,ioos:station:wmo:42907:2,2023-06-03T11:30:00Z,27.5090,-89.9453,15.0,25.3,11111222
BP,ioos:station:wmo:42907:2,2023-06-03T11:40:00Z,27.5090,-89.9453,15.0,25.1,11111222
BP,ioos:station:wmo:42907:2,2023-06-03T11:50:00Z,27.5090,-89.9453,15.0,25.6,11111222
BP,ioos:station:wmo:42907:2,2023-06-03T12:00:00Z,27.5090,-89.9453,15.0,25.9,11111222
BP,ioos:station:wmo:42907:2,2023-06-03T12:10:00Z,27.5090,-89.9453,15.0,25.8,11111222
BP,ioos:station:wmo:42907:2,2023-06-03T12:20:00Z,27.5090,-89.9453,15.0,25.9,11111222
BP,ioos:station:wmo:42907:2,2023-06-03T12:30:00Z,27.5090,-89.9453,15.0,25.3,11111222
BP,ioos:station:wmo:42907:2,2023-06-03T12:40:00Z,27.5090,-89.9453,15.0,24.7,11111222
BP,ioos:station:wmo:42907:2,2023-06-03T12:50:00Z,27.5090,-89.9453,15.0,25.1,11111222
BP,ioos:station:wmo:42907:2,2023-06-03T13:00:00Z,27.5090,-89.9453,15.0,25.1,11111222
BP,ioos:station:wmo:42907:2,2023-06-03T13:10:00Z,27.5090,-89.9453,15.0,25.3,11111222
BP,ioos:station:wmo:42907:2,2023-06-03T13:20:00Z,27.5090,-89.9453,15.0,25.0,11111222
BP,ioos:station:wmo:42907:2,2023-06-03T13:30:00Z,27.5090,-89.9453,15.0,25.2,11111222